Location: Unspecified
(35.6961°N, 0.0000°E)
Time: 05:20:00
(UTC+00:00)

Altair - Pass Details

Date: 23 May 2019
Orbit: 1501 x 1683 km, 47.2° (Epoch: 18 June)

Event Time Altitude Azimuth Distance (km) Brightness Sun altitude
Rises 07:25:33 0° 290° (WNW) 4,937 9.7 29.5°
Reaches altitude 10° 07:29:00 10° 297° (WNW) 3,946 9.3 30.2°
Maximum altitude 07:38:35 44° 8° (N) 2,169 8.8 32.1°
Drops below altitude 10° 07:47:57 10° 78° (ENE) 3,856 11.0 34.0°
Sets 07:51:16 0° 85° (E) 4,816 11.1 34.7°
